Home   Weather   Haugesund   Past weeks

Flag for Norway Past Weather in Haugesund, Norway — Yesterday and Last 2 Weeks

Now
41 °F

Passing clouds.


Feels Like: 39 °F
Forecast: 36 / 41 °F
Wind: 3 mph from Northwest

Location: Karmoy

Current Time: Jan 23, 2017 at 6:01:37 pm

Latest Report: Jan 23, 2017 at 5:20 pm


Visibility: N/A

Pressure: 30.12 "Hg

Humidity: 100%

Dew Point: 41 °F

Location of HaugesundLocation

Past Weather in Haugesund — Graph

°F

Haugesund Temperature Yesterday

Maximum temperature yesterday: 41 °F (at 11:50 am)
Minimum temperature yesterday: 37 °F (at 7:50 pm)
Average temperature yesterday: 40 °F

High & Low Weather Summary for the Past Weeks

 TemperatureHumidityPressure
High46 °F (Jan 8, 4:20 pm)100% (Jan 8, 5:20 pm)30.48 "Hg (Jan 8, 5:20 pm)
Low18 °F (Jan 16, 3:50 am)57% (Jan 12, 10:20 pm)28.53 "Hg (Jan 11, 8:20 am)
Average40 °F89%29.92 "Hg
* Reported Jan 8 4:20 pm — Jan 23 4:50 pm, Haugesund, Weather by CustomWeather, © 2017

Note: Actual official high and low records may vary slightly from our data, if they occured in-between our weather recording intervals... More about our weather records

Advertising

Haugesund Weather History for the Previous 24 Hours

Scroll right to see more
 ConditionsComfort  
Time TempWeatherWind HumidityBarometerVisibility
4:50 pm
Mon, Jan 23
43 °FPartly cloudy.6 mph93%30.12 "HgN/A
4:20 pm43 °FBroken clouds.9 mph93%30.12 "HgN/A
3:50 pm43 °FPartly sunny.5 mph93%30.12 "HgN/A
3:20 pm43 °FBroken clouds.6 mph93%30.12 "HgN/A
2:50 pm43 °FBroken clouds.7 mph93%30.12 "HgN/A
2:20 pm43 °FLight rain. Broken clouds.8 mph93%30.12 "HgN/A
1:50 pm43 °FBroken clouds.8 mph93%30.12 "HgN/A
1:20 pm43 °FBroken clouds.9 mph87%30.12 "HgN/A
12:50 pm45 °FScattered clouds.9 mph87%30.12 "HgN/A
12:20 pm43 °FScattered clouds.7 mph93%30.15 "HgN/A
11:50 am43 °FPartly sunny.9 mph87%30.15 "HgN/A
11:20 am43 °FBroken clouds.8 mph87%30.15 "HgN/A
10:50 am41 °FPartly sunny.7 mph100%30.15 "HgN/A
10:20 am39 °FScattered clouds.6 mph93%30.12 "HgN/A
9:50 am39 °FBroken clouds.3 mph100%30.12 "HgN/A
9:20 am41 °FBroken clouds.3 mph93%30.12 "HgN/A
8:50 am41 °FPassing clouds.7 mph93%30.12 "HgN/A
7:50 am39 °FSprinkles. Partly cloudy.3 mph93%30.12 "HgN/A
7:20 am39 °FPartly cloudy.5 mph93%30.12 "HgN/A
6:50 am39 °FPartly cloudy.7 mph93%30.12 "HgN/A
6:20 am39 °FPartly cloudy.6 mph100%30.12 "HgN/A
5:50 am39 °FPartly cloudy.5 mph100%30.12 "HgN/A
5:20 am37 °FPartly cloudy.6 mph100%30.12 "HgN/A
4:50 am37 °FOvercast.7 mph100%30.12 "HgN/A
4:20 am39 °FOvercast.7 mph93%30.12 "HgN/A
3:50 am39 °FPassing clouds.7 mph93%30.12 "HgN/A
3:20 am39 °FLight rain. Mostly cloudy.7 mph93%30.15 "HgN/A
2:50 am39 °FMostly cloudy.10 mph93%30.15 "HgN/A
2:20 am37 °FPartly cloudy.12 mph100%30.15 "HgN/A
1:50 am37 °FOvercast.12 mph100%30.15 "HgN/A
1:20 am39 °FChilly.12 mph93%30.15 "HgN/A
12:50 am39 °FPartly cloudy.10 mph93%30.15 "HgN/A
12:20 am39 °FPartly cloudy.8 mph93%30.15 "HgN/A
11:50 pm
Sun, Jan 22
39 °FLight rain. Partly cloudy.8 mph93%30.18 "HgN/A
11:20 pm39 °FPartly cloudy.8 mph93%30.18 "HgN/A
10:50 pm39 °FPartly cloudy.7 mph93%30.18 "HgN/A
10:20 pm39 °FPartly cloudy.7 mph93%30.18 "HgN/A
9:50 pm39 °FLight rain. Partly cloudy.8 mph100%30.18 "HgN/A
9:20 pm39 °FPartly cloudy.8 mph93%30.18 "HgN/A
8:50 pm39 °FPartly cloudy.9 mph100%30.18 "HgN/A
8:20 pm39 °FPartly cloudy.10 mph93%30.18 "HgN/A
7:50 pm37 °FPartly cloudy.7 mph100%30.18 "HgN/A
7:20 pm39 °FPartly cloudy.6 mph93%30.18 "Hg6 mi
6:50 pm39 °FPartly cloudy.7 mph100%30.18 "Hg6 mi
6:20 pm39 °FPartly cloudy.9 mph100%30.21 "Hg6 mi
Weather by CustomWeather, © 2017

See weather overviewHow to use our weather pages